TimeEST,TemperatureF,Dew PointF,Humidity,Sea Level PressureIn,VisibilityMPH,Wind Direction,Wind SpeedMPH,Gust SpeedMPH,PrecipitationIn,Events,Conditions,WindDirDegrees,DateUTC
12:56 AM,28.9,18.0,64,30.11,10.0,NW,8.1,-,N/A,,Clear,320,2013-02-25 05:56:00
1:56 AM,27.0,18.0,69,30.12,10.0,NW,6.9,-,N/A,,Clear,320,2013-02-25 06:56:00
2:56 AM,28.0,18.0,66,30.12,10.0,NW,6.9,-,N/A,,Partly Cloudy,320,2013-02-25 07:56:00
3:56 AM,28.9,19.0,67,30.12,10.0,NW,10.4,-,N/A,,Scattered Clouds,310,2013-02-25 08:56:00
4:56 AM,26.1,18.0,71,30.13,10.0,NW,6.9,-,N/A,,Partly Cloudy,320,2013-02-25 09:56:00
5:56 AM,26.1,17.1,69,30.15,10.0,Calm,Calm,-,N/A,,Clear,0,2013-02-25 10:56:00
6:56 AM,24.1,18.0,77,30.18,10.0,Calm,Calm,-,N/A,,Clear,0,2013-02-25 11:56:00
7:56 AM,30.0,21.0,69,30.18,10.0,NNW,4.6,-,N/A,,Clear,330,2013-02-25 12:56:00
8:56 AM,34.0,21.0,59,30.20,10.0,WNW,8.1,-,N/A,,Clear,290,2013-02-25 13:56:00
9:56 AM,37.0,21.0,52,30.21,10.0,North,4.6,-,N/A,,Clear,350,2013-02-25 14:56:00
10:56 AM,39.0,21.9,50,30.20,10.0,NNW,8.1,-,N/A,,Clear,340,2013-02-25 15:56:00
11:56 AM,41.0,24.1,51,30.20,10.0,West,4.6,-,N/A,,Scattered Clouds,280,2013-02-25 16:56:00
12:56 PM,43.0,24.1,47,30.18,10.0,West,5.8,-,N/A,,Scattered Clouds,260,2013-02-25 17:56:00
1:56 PM,44.1,21.9,42,30.18,10.0,Calm,Calm,-,N/A,,Scattered Clouds,0,2013-02-25 18:56:00
2:56 PM,45.0,21.0,39,30.16,10.0,Calm,Calm,-,N/A,,Scattered Clouds,0,2013-02-25 19:56:00
3:56 PM,45.0,21.9,40,30.16,10.0,Calm,Calm,-,N/A,,Scattered Clouds,0,2013-02-25 20:56:00
4:56 PM,44.1,21.9,42,30.17,10.0,West,3.5,-,N/A,,Partly Cloudy,280,2013-02-25 21:56:00
5:56 PM,37.9,24.1,57,30.18,10.0,Calm,Calm,-,N/A,,Scattered Clouds,0,2013-02-25 22:56:00
6:56 PM,34.0,27.0,75,30.20,10.0,Calm,Calm,-,N/A,,Scattered Clouds,0,2013-02-25 23:56:00
7:56 PM,35.1,28.0,76,30.21,10.0,Calm,Calm,-,N/A,,Scattered Clouds,0,2013-02-26 00:56:00
8:56 PM,32.0,21.9,66,30.21,10.0,Calm,Calm,-,N/A,,Partly Cloudy,0,2013-02-26 01:56:00
9:56 PM,30.9,24.1,76,30.22,10.0,Calm,Calm,-,N/A,,Clear,0,2013-02-26 02:56:00
10:56 PM,30.0,21.9,72,30.22,10.0,East,3.5,-,N/A,,Clear,90,2013-02-26 03:56:00
11:56 PM,34.0,26.1,73,30.23,10.0,Calm,Calm,-,N/A,,Partly Cloudy,0,2013-02-26 04:56:00